Location: Newark
(49.8969°N, 3.3422°E)
Time: 23:51:13
(UTC+00:00)

Vanguard 1 Rocket - Pass Details

Date: 21 January 2020
Orbit: 650 x 4226 km, 34.3° (Epoch: 19 February)

Event Time Altitude Azimuth Distance (km) Brightness Sun altitude
Rises 09:46:31 0° 212° (SSW) 4,321 11.2 14.3°
Reaches altitude 10° 09:49:26 10° 200° (SSW) 3,725 11.2 14.6°
Maximum altitude 09:57:45 29° 145° (SE) 3,494 12.4 15.2°
Drops below altitude 10° 10:11:20 10° 95° (E) 6,222 12.2 16.3°
Sets 10:18:12 0° 87° (E) 7,782 12.4 16.7°
